User: anonymous   Login
Location: Santa Teresa Spring
(37.2333°N, 121.7000°W)
Time: 20:34:19
(UTC-08:00)
Language:

Cosmos 1633 - Orbit

View from above orbital plane
View from above orbital plane
View from above satellite
View from above satellite

Ground track
Ground track

The orbit data is extracted from the following two-line orbital elements,

1 15592U 85020A   17055.83444776  .00002411  00000-0  86627-4 0  9999
2 15592  82.5356  71.8513 0012868 208.3391 151.7150 15.28081526747139
Epoch (UTC): 24 February 2017 20:01:36
Eccentricity: 0.0012868
inclination: 82.5356°
perigee height: 473 km
apogee height: 490 km
right ascension of ascending node: 71.8513°
argument of perigee: 208.3391°
revolutions per day: 15.28081526
mean anomaly at epoch: 151.7150°
orbit number at epoch: 74713

The dashed part of the orbit path shows where the satellite is in the earth's shadow,  

DLR